www.pogodaiklimat.ru

Погода и климат >> Архив погоды >> Кипр >> Лефконико


ПОГОДА в Лефконико

  • Прогноз погоды в Лефконико
  • Монитор погоды в Лефконико

АРХИВ ПОГОДЫ в Лефконико

Время (UTC), дата Ветер
(напр.,м/с)
 
Видим.   Явления Облачность Т
(С)
Тd
(С)
f
(%)
Тe
(С)
Тes
(С)
Комфортность P
(гПа)
Po
(гПа)
Тmin
(С)
Tmax
(С)
R
(мм)
R24
(мм)
S
(см)
12 11.08 С 3 10 км ясно +38.8 +0.8 9 +35 +48 очень
жарко
1005.7 989.7
15 11.08 З 5 10 км ясно +37.5 +8.0 17 +36 +37 очень
жарко
1005.2 989.1
18 11.08 ЮЗ 3 10 км ясно +29.5 +20.9 60 +37 +37 очень
душно
1006.5 990.1 +39.8
21 11.08 ЮЗ 4 10 км ясно +27.3 +19.0 61 +33 +33 очень
душно
1006.9 990.3
00 12.08 ЮЗ 3 10 км ясно +25.6 +20.7 74 +32 +32 очень
душно
1006.4 989.7
03 12.08 штиль 0 10 км ясно +24.1 +19.0 73 +29 +29 душно 1006.5 989.8
06 12.08 штиль 0 10 км ясно +28.4 +11.2 34 +29 +39 жарко 1006.9 990.4 +22.8
09 12.08 С 3 10 км ясно +37.9 +7.9 16 +36 +51 опасность
солнечного
удара
1006.2 990.2
12 12.08 штиль 0 10 км 1/1 750 м
[Cu hum]
+39.4 +8.2 15 +37 +55 опасность
солнечного
удара
1005.3 989.4
15 12.08 СВ 3 10 км 1/1 750 м
[Cu hum]
+36.7 +15.4 28 +38 +40 очень
душно
1004.6 988.6
18 12.08 Ю 3 10 км ясно +30.6 +14.1 37 +32 +32 жарко 1005.8 989.4 +40.6
21 12.08 штиль 0 10 км ясно +27.2 +16.2 51 +31 +31 душно 1006.7 990.1
00 13.08 штиль 0 10 км ясно +25.0 +17.3 62 +29 +29 душно 1006.5 989.8
03 13.08 штиль 0 10 км ясно +23.3 +15.0 60 +27 +27 душно 1006.5 989.7
06 13.08 штиль 0 10 км ясно +28.0 +13.0 40 +30 +40 жарко 1007.2 990.7 +23.0
09 13.08 штиль 0 10 км ясно +36.7 +9.7 19 +35 +60 опасность
солнечного
удара
1006.1 990.1
12 13.08 З 3 10 км ясно +38.3 +14.1 24 +39 +51 опасность
солнечного
удара
1005.1 989.1
15 13.08 ЮЗ 7 10 км ясно +35.2 +8.1 19 +33 +34 жарко 1005.1 989.0
18 13.08 ЮЗ 3 10 км ясно +28.8 +17.9 52 +33 +33 очень
душно
1006.2 989.8 +40.3
21 13.08 штиль 0 10 км ясно +27.0 +20.5 68 +34 +34 очень
душно
1007.2 990.6
00 14.08 штиль 0 10 км ясно +22.6 +15.1 63 +26 +26 жарко 1007.2 990.4
03 14.08 штиль 0 10 км ясно +22.3 +18.6 80 +28 +28 душно 1007.2 990.3
06 14.08 штиль 0 10 км ясно +26.2 +20.4 70 +32 +42 очень
душно
1007.8 991.2 +20.5
09 14.08 В 3 10 км 1/1 750 м
[Cu hum]
+35.2 +12.1 25 +35 +50 очень
жарко
1007.0 990.9
12 14.08 ЮЗ 5 10 км 1/1 750 м
[Cu hum]
+35.0 +16.2 33 +38 +45 очень
душно
1006.3 990.1
15 14.08 ЮЗ 5 10 км 1/1 750 м
[Cu hum]
+31.4 +19.4 49 +37 +38 очень
душно
1006.8 990.5
18 14.08 ЮЗ 4 10 км 4/1 750 м
[Cu hum Ci fib]
+27.6 +19.6 62 +33 +33 очень
душно
1007.9 991.3 +38.0
21 14.08 З 2 10 км 3/3 750 м
[Cu hum]
+26.2 +21.1 74 +33 +33 очень
душно
1008.2 991.6
00 15.08 штиль 0 10 км 1/1 750 м
[Cu hum]
+25.4 +20.6 75 +32 +32 очень
душно
1008.0 991.3
03 15.08 штиль 0 10 км 1/1 750 м
[Cu hum]
+23.8 +20.1 80 +29 +29 душно 1008.2 991.4
06 15.08 ЮЗ 2 10 км 4/4 750 м
[Cu hum]
+25.8 +20.6 73 +32 +36 очень
душно
1008.7 992.0 +22.7
09 15.08 ЮЗ 4 10 км 3/3 900 м
[Cu hum]
+32.2 +16.8 40 +36 +45 очень
душно
1009.0 992.6
12 15.08 ЮЗ 7 10 км 4/4 900 м
[Cu hum]
+33.4 +16.5 36 +36 +38 очень
душно
1007.9 991.6
15 15.08 З 6 10 км 1/1 900 м
[Cu hum]
+31.2 +15.8 39 +34 +34 душно 1007.8 991.4
18 15.08 З 4 10 км 1/1 900 м
[Cu hum]
+27.1 +18.7 60 +32 +32 очень
душно
1009.3 992.7 +34.9
21 15.08 ЮЗ 2 10 км 1/1 900 м
[Cu hum]
+25.3 +18.6 66 +30 +30 душно 1010.4 993.7
00 16.08 ЮЗ 2 10 км ясно +24.3 +18.3 69 +29 +29 душно 1009.7 992.9
03 16.08 З 2 10 км ясно +21.7 +17.5 77 +26 +26 душно 1009.6 992.6
06 16.08 штиль 0 10 км ясно +25.7 +16.8 58 +29 +39 душно 1010.0 993.3 +21.6
09 16.08 штиль 0 10 км 1/1 750 м
[Cu hum]
+31.5 +13.6 34 +33 +55 опасность
солнечного
удара
1009.6 993.2
12 16.08 ЮЗ 5 10 км 1/1 750 м
[Cu hum]
+33.2 +15.9 35 +36 +42 очень
душно
1008.3 992.0
15 16.08 З 6 10 км 1/1 750 м
[Cu hum]
+31.0 +16.9 43 +35 +35 очень
душно
1008.0 991.6
18 16.08 ЮЗ 7 10 км 1/1 750 м
[Cu hum]
+26.8 +21.0 71 +34 +34 очень
душно
1008.8 992.2 +35.0
21 16.08 З 3 10 км ясно +25.8 +21.0 75 +32 +32 очень
душно
1009.1 992.4
00 17.08 ЮЗ 3 10 км 5/5 450 м
[St]
+25.3 +21.2 78 +32 +32 очень
душно
1008.6 991.9
03 17.08 штиль 0 10 км 6/6 450 м
[St]
+24.3 +20.1 77 +30 +30 очень
душно
1008.7 992.0
06 17.08 штиль 0 9000 м дымка ясно +26.5 +20.8 71 +33 +43 очень
душно
1009.1 992.5 +23.5
09 17.08 З 3 10 км 1/1 750 м
[Cu hum]
+32.9 +18.4 42 +37 +51 опасность
солнечного
удара
1008.5 992.2
12 17.08 ЮЗ 5 10 км 4/4 750 м
[Cu hum]
+34.0 +17.9 38 +38 +42 очень
душно
1007.3 991.1
15 17.08 ЮЗ 5 10 км 1/1 750 м
[Cu hum]
+32.5 +16.7 39 +36 +37 очень
душно
1006.2 990.0
18 17.08 ЮЗ 3 10 км 1/1 750 м
[Cu hum]
+27.7 +20.2 64 +34 +34 очень
душно
1006.7 990.1 +36.2
21 17.08 ЮЗ 2 10 км 1/1 900 м
[Cu hum]
+26.5 +20.3 69 +33 +33 очень
душно
1006.7 990.1
00 18.08 штиль 0 10 км ясно +24.3 +19.4 74 +29 +29 душно 1006.6 989.9
03 18.08 штиль 0 10 км ясно +20.5 +17.5 83 +24 +24 комфорт 1006.4 989.5
06 18.08 штиль 0 10 км ясно +27.2 +18.6 59 +32 +42 очень
душно
1006.2 989.6 +20.0
09 18.08 СВ 3 10 км 4/4 750 м
[Cu hum]
+32.3 +16.2 38 +35 +44 очень
душно
1006.1 989.8

 

Местоположение метеостанции Лефконико (Кипр): широта 35.25 долгота 33.73 высота над уровнем моря 58 м.

В архиве по умолчанию представлена погода в Лефконико за последнюю неделю. Архивные данные за месяц целиком и за предыдущие месяцы, начиная с января 2011 года, Вы можете получить, выбрав интересующий диапазон дат из раскрывающегося списка и нажав кнопку "Ввод!".


*Определитесь, кто Вы:
робот инопланетянин человек

Внимание! Время в таблицах - всемирное. Для получения местного времени необходимо прибавить поправку, которая равна 2 ч.

Смотрите также архив погоды в соседних городах и на ближайших метеорологических станциях:

Погода на Базе ВВС Gecitkale (Кипр) (2 км)
Погода в Искеле (Кипр) (14 км)
Погода в Никосии (Кипр) (24 км)
Погода в Фамагусте (Кипр) (24 км)
Погода в Аталассе (Кипр) (32 км)
Погода в Unknown (Кипр) (37 км)
Погода в Киринии (Кипр) (39 км)
Погода в Гиалусе (Кипр) (41 км)
Погода в Ларнаке (Кипр) (42 км)
Погода в Акденизе (Кипр) (69 км)

Пояснения к столбцам:

Ветер - указаны скорость ветра в м/с - средняя за 10 мин, порывы в срок и между сроками (в фигурных скобках) и направление, откуда дует ветер: С - северный, СВ - северо-восточный, В - восточный, ЮВ - юго-восточный, Ю - южный, ЮЗ - юго-западный, З - западный, СЗ - северо-западный.
Видимость - горизонтальная дальность видимости в метрах или километрах. При видимости от 1 до 10 км при отсутствии осадков обычно наблюдается дымка, при ухудшении видимости до 1 км и менее - туман. В сухую погоду видимость может ухудшаться дымом, пылью или мглою.
Явления - указаны атмосферные явления, наблюдавшиеся в срок или в последний час перед сроком; фигурными скобками обозначены явления, наблюдавшиеся между сроками (за 1-3 часа до срока); квадратными скобками обозначены град или гололедные отложения с указанием их диаметра в мм.
Облачность - указаны через наклонную черту общая и нижняя облачность в баллах и высота нижней границы облаков в метрах; квадратными скобками обозначены формы облаков: Ci - перистые, Cs - перисто-слоистые, Cc - перисто-кучевые, Ac - высококучевые, As - высокослоистые, Sc - слоисто-кучевые, Ns - слоисто-дождевые, Cu - кучевые, Cb - кучево-дождевые. Подробнее классификацию облаков см. в Атласе облаков (PDF).
T - Температура воздуха - температура, измеренная на высоте 2 м над землей.
Td - Температура точки росы - температура, при понижении до которой содержащийся в воздухе водяной пар достигнет насыщения.
f - Относительная влажность воздуха - влажноcть воздуха, измеренная на высоте 2 м над землей.
Te - Эффективная температура - температура, которую ощущает одетый по сезону человек в тени. Характеристика душности погоды. При расчете учитывается влияние влажности воздуха и скорости ветра на теплоощущения человека.
Tes - Эффективная температура на солнце - температура, которую ощущает человек, с поправкой на солнечный нагрев. Характеристика знойности погоды. Зависит от высоты солнца над горизонтом, облачности и скорости ветра. Ночью, в пасмурную погоду, а также при ветре 12 м/с и более поправка равна нулю.
P - Атмосферное давление - приведенное к уровню моря атмосферное давление.
Po - Атмосферное давление - измеренное на уровне метеостанции атмосферное давление.
Tmin - Минимальная температура - минимум температуры воздуха на высоте 2 м над землей.
Tmax - Максимальная температура - максимум температуры воздуха на высоте 2 м над землей.
R - Количество осадков - Количество выпавших осадков за период времени, мм. При наведении курсора мыши на число - период времени, за который выпало указанное количество осадков.
R24 - Количество осадков - Количество выпавших осадков за 24 часа, мм.
S - Снежный покров - Высота снежного покрова, см. При наведении курсора мыши на число - состояние снежного покрова и степень покрытия местности в баллах.